Starlink 2519

operational
NORAD ID: 48305 Int'l Des: 2021-036 Owner: SPXS Country: US Constellation: starlink
LEOCIRCULARSTARLINK_TYPE

Starlink 2519について

説明を読み込み中...

リアルタイム位置

3D地球を読み込み中...

次回通過

高度履歴

Altitude vs Time

uPlot chart will show altitude changes over time

軌道要素

1 48305U 21036AF 26072.41627159 .00005529 00000-0 38947-3 0 9999
2 48305 53.0547 75.4715 0001343 72.1373 287.9763 15.06429788268726
Epoch: Mar 13, 2026 • Age: 32 hours

現在のステータス

高度 563.0 km
速度 7.58 km/s
衛星直下点 -44.37°S, 10.17°E
打ち上げ日 Apr 29, 2021
運用期間 4.8 years
タイプ internet

技術仕様

分類 Payload
質量 260.00 kg
乾燥質量 248.00 kg
総質量 260.00 kg
長さ 0.20 m
直径 2.80 m
スパン 9.00 m
形状 Box + pan
製造者 SPXS
バスタイプ Starlink
フェーズステータス In Orbit
所有者/国 SPXS/US

大規模コンステレーション

Loading constellations...